COSMOS 2251 DEB, 35830

Orbit data source: Space-Track

COSMOS 2251 DEB, 35830 is space debris in LEO originally from a launch on Wed, 16 Jun 1993 UTC launched from the Plesetsk Missile And Space Complex (PKMTR). The debris from Iridium 33, an American commercial communications satellite, has been tracked extensively since its accidental collision with the defunct Russian satellite Cosmos 2251 in 2009. This event, occurring at high speed in low Earth orbit (LEO), generated thousands of pieces of space debris, significantly increasing the risk of further collisions. The Iridium 33 debris cloud has impacted space traffic management and orbital debris mitigation strategies, making it a subject of ongoing study in space situational awareness.

Loading next visibility...
Identifier
35830, 1993-036ATC
Orbit
LEO
Country
Flag of CISCIS
Related business
Manufacturer
Unknown
Mission
Spacecraft
Bus & Motor
Unknown
Mass
Unknown
Launch date (UTC)
1993-06-16 (33 years ago)
Launch vehicle
Unknown
Launch site
Plesetsk Missile And Space Complex (PKMTR)
Object type
Payload
Rocket body
Debris
Shape & HBR
Unknown shape, 0.1 m
Radar Cross Section
Small (<0.1 m²)

Expand to show TLE details & history
Last TLE update: 1 week ago

TLE from 1 week ago
0 COSMOS 2251 DEB
1 35830U 93036ATC 26117.98246501  .00004211  00000-0  16730-2 0  9999
2 35830  73.8641  18.2169 0117193 318.9930  40.2446 14.25355864632040
Epoch: 2026-04-27T23:34Z
TLE epoch observation values (Epoch: 2026-04-27T23:34:44.976Z)
Latitude
-0.0001°
Longitude
168.56515°
Altitude
746.017 km
Speed
7.515 km/s
True Right ascension
01h 12m 52s
True Declination
0° 00' 00"
Sunlit
Object was in daylight at epoch
Visualization orbit readout
Latitude
Unknown
Longitude
Unknown
Altitude
Unknown
Speed
Unknown
Apparent Right ascension
Unknown
Apparent Declination
Unknown
Sunlit
N/A
Visualization observer readout
Local Sidereal Time
20:50:21
Azimuth
Unknown
Elevation
Unknown
Doppler factor
Unknown
Orbital elements
Apogee altitude
889.127 km
Perigee altitude
720.766 km
Semi-major axis
7,183.083 km
Eccentricity
0.01172
Inclination
73.8641°
RAAN
18.2169°
Arg. of periapsis
318.993°
True anomaly
41.12198°
Mean anomaly
40.2446°
Eccentric anomaly
40.6823°
Mean motion
3.56514 °/min
Orbital period
100.98 mins
BSTAR
0.001673
Loading maneuver chart data...
Computing Atmospheric mass density...

Documentation

Showing up to 5 results
|